San Juan

Airport
ICAO code: 
TJSJ
Summary
ICAO Region: 
CARSAM
Territory: 
Location: 
Carolina,
Coordinates: 
Aerial View: 
18° 26' 21.839" N, 66° 0' 6.482" W
Metar
Observation
TJSJ 201056Z 10006KT 9SM SCT022 SCT035 SCT060 26/23 A3010 RMK AO2 RAE0957 SLP190 HZ ALQDS P0000 T02610233
Station
San Juan, Luis Munoz Marin International Airport
Date/Time
2022-05-20 10:56:00
Wind direction
100°
Wind speed
06 kts
Lowest cloud amount
scattered clouds
Temperature
26.1°C
Dew point
23.3°C
Humidity
84%
Weather condition
n/a

Description

Luis Muñoz Marín International Airport is a joint civil-military public airport located in Carolina, Puerto Rico, 5 km southeast of San Juan.

Climatology

Tropical Monsoon climate (Köppen climate classification Am) - monthly mean temperatures above 18°C in every month of the year and features wet and dry seasons. A tropical monsoon climate typically features less pronounced dry seasons than a tropical savanna climate and see less variance in temperatures during the course of the year. The driest month nearly always occurs at or soon after the "winter" solstice.

Runways

Designator Length Width Surface Rops
10/28 2443 46 CON Yes/Yes
8/26 3049 61 ASP Yes/Yes
Airport map: 
Aerial View: 

Accidents and Serious Incidents at or in the vicinity of TJSJ

SKYbrary Partners:

Safety knowledge contributed by: